Location: Dallas(GA)
(33.9240°N, 84.8410°W)
Time: 00:54:48
(UTC-04:00)

Hubble Space Telescope - Visible Passes

Search period start: 28 September 2020 00:00
Search period end: 08 October 2020 00:00
Orbit: 536 x 540 km, 28.5° (Epoch: 27 September)

Date Brightness Start Highest point End Pass type
(mag) Time Alt. Az. Time Alt. Az. Time Alt. Az.
28 Sep 3.7 04:55:43 11° ESE 04:55:43 11° ESE 04:56:01 10° ESE visible
28 Sep 1.7 06:31:03 18° SW 06:33:33 37° S 06:37:22 10° ESE visible
29 Sep 1.6 06:20:59 25° SW 06:22:47 38° S 06:26:37 10° ESE visible
30 Sep 1.6 06:10:55 32° SW 06:12:01 38° S 06:15:51 10° ESE visible
01 Oct 1.5 06:00:52 36° SSW 06:01:14 37° S 06:05:04 10° ESE visible
02 Oct 1.7 05:50:51 35° S 05:50:51 35° S 05:54:15 10° ESE visible
03 Oct 2.2 05:40:52 28° SSE 05:40:52 28° SSE 05:43:25 10° SE visible
04 Oct 2.8 05:30:55 20° SE 05:30:55 20° SE 05:32:32 10° SE visible
04 Oct 2.9 07:07:31 10° SW 07:09:33 13° SSW 07:11:35 10° S visible
05 Oct 3.4 05:21:02 13° SE 05:21:02 13° SE 05:21:36 10° SE visible
05 Oct 3.1 06:57:45 10° SW 06:58:42 11° SSW 06:59:40 10° S visible
